Theta_e
313 313 313 312 310 309 309 309 303 319 323 310 308 303 308 308 311 316 315 315 313 312 313 309 309 309 312 316 316 312 316 313 308 310 316 317 315 313 313 307 307 309 308 306
313 313 313 312 310 309 307 305 308 319 321 304 305 309 309 311 310 313 313 311 314 315 313 310 311 311 316 318 316 315 316 311 306 308 312 315 311 314 313 312 312 310 305 307
312 312 312 311 310 309 308 306 303 309 314 312 308 307 308 308 313 313 315 313 315 312 312 315 311 311 314 317 317 327 319 312 311 303 309 313 310 311 312 311 308 309 309 312
310 312 312 311 311 309 308 309 305 313 307 307 308 309 310 310 308 313 316 313 312 312 311 312 311 313 313 315 319 317 316 313 311 310 311 311 311 311 311 309 311 308 311 313
310 311 311 311 311 309 310 306 303 308 306 311 313 307 309 311 312 312 311 310 312 313 311 315 314 316 317 313 316 314 316 312 312 308 311 311 309 311 312 312 311 311 312 314
309 309 311 312 311 309 309 310 307 306 305 308 308 310 311 312 314 314 314 314 314 312 314 320 321 320 320 319 318 316 317 311 312 306 310 310 306 310 311 312 314 313 311 319
308 308 309 311 312 310 307 311 306 303 302 305 307 309 311 311 313 311 314 315 314 320 322 323 322 319 319 320 319 319 319 319 314 307 312 301 311 317 315 313 315 316 316 320
308 308 309 310 312 312 308 311 308 302 299 306 306 307 308 311 313 312 312 316 320 321 318 314 311 312 313 314 318 318 313 319 311 307 305 309 312 315 315 312 314 319 318 320
307 308 308 309 311 312 310 310 313 305 300 303 305 303 306 305 308 310 312 318 320 317 313 310 306 303 307 308 311 319 316 319 314 311 304 301 313 317 321 319 308 321 320 321
308 308 308 309 310 311 310 309 315 307 300 306 304 302 303 308 308 308 312 313 313 316 310 306 304 304 311 305 306 311 311 313 308 307 305 307 317 319 320 306 307 321 323 322
307 308 308 308 309 311 310 308 315 307 302 304 305 306 303 305 309 304 309 309 310 311 308 306 306 306 308 309 314 309 311 309 307 310 306 304 321 318 312 325 327 324 325 326
308 308 308 308 309 311 310 306 312 312 305 305 309 308 310 308 308 306 308 309 316 314 311 311 311 307 309 312 303 315 308 312 313 314 310 320 324 324 326 326 328 325 325 324
308 308 308 308 308 310 310 306 309 309 305 306 306 305 311 312 310 311 303 312 313 316 316 313 314 311 315 308 310 313 317 319 315 313 314 315 321 321 323 323 323 322 323 323
307 308 308 308 308 310 311 306 309 308 305 300 304 308 306 311 309 310 310 311 312 312 312 311 311 310 316 311 312 309 315 315 312 316 314 320 320 320 321 322 323 323 324 323
307 308 308 308 308 310 310 309 310 310 304 301 303 309 308 309 310 308 310 309 310 308 305 306 307 312 312 313 312 309 315 315 312 309 317 319 318 319 320 319 318 321 323 323
307 307 307 307 308 310 307 304 310 312 310 302 300 309 309 309 309 307 309 310 309 306 306 306 308 313 310 305 304 311 315 319 319 315 317 317 318 319 320 317 317 318 318 322
307 307 307 307 308 308 302 300 306 307 307 303 300 301 307 308 309 308 307 308 307 306 305 304 305 306 307 303 299 308 310 314 314 314 315 312 312 311 315 316 317 318 318 320
307 307 307 307 308 307 304 308 308 307 304 305 299 300 303 308 304 304 309 306 306 305 305 307 304 306 305 299 306 307 309 311 310 310 311 311 313 314 314 315 315 314 314 316
307 306 307 307 306 303 304 308 309 308 305 300 300 297 298 308 306 308 307 308 301 307 301 302 304 302 299 304 307 307 309 310 309 311 312 313 312 313 315 315 315 314 315 315
306 304 302 298 305 310 309 306 304 302 303 302 298 304 299 303 303 301 304 305 302 300 304 305 300 300 307 307 309 312 313 313 313 311 311 313 313 313 313 314 315 316 316 316
302 300 300 309 307 305 303 298 298 299 297 300 300 302 300 306 300 302 304 301 302 296 301 302 300 302 309 314 315 316 316 315 314 314 313 313 313 312 312 312 313 314 317 318
305 305 310 308 303 300 295 295 298 297 295 300 299 300 304 305 307 303 304 299 300 294 305 301 297 310 314 315 314 315 315 315 314 314 313 313 313 313 312 312 312 313 318 322
308 302 299 300 299 288 289 288 293 294 300 301 303 300 303 305 304 302 302 296 296 304 298 297 305 312 312 313 314 314 316 315 315 313 313 313 313 314 313 314 317 317 319 322
297 293 287 293 291 293 294 295 297 301 303 302 304 301 302 304 301 302 296 301 302 296 294 297 304 308 310 312 313 313 313 314 313 313 314 314 314 315 315 316 319 319 319 323
296 296 287 292 296 299 300 303 302 303 305 303 302 303 303 300 299 301 299 296 293 296 298 303 306 310 311 312 313 313 314 315 314 315 315 315 314 316 315 318 323 320 323 324
297 296 294 297 296 297 298 299 300 304 304 305 304 299 297 297 298 295 294 294 294 299 304 307 309 310 312 312 314 315 315 315 315 317 318 318 318 317 318 321 321 322 323 322
295 295 299 301 301 298 299 301 302 306 302 298 302 295 294 300 295 294 298 299 301 304 306 309 312 312 312 313 313 314 313 313 315 316 317 315 318 317 318 319 320 322 322 322
Wind_Speed
19 20 21 21 23 27 13 7 7 10 12 10 10 15 23 27 25 26 15 14 19 18 20 22 26 26 25 28 28 27 24 8 13 26 20 23 21 16 10 9 9 8 9 5
19 20 20 19 19 15 10 7 11 9 11 13 13 19 24 27 24 22 19 16 21 20 21 18 24 26 24 25 27 25 18 13 10 14 20 20 17 16 19 17 13 12 11 5
20 20 20 20 19 13 8 6 7 11 12 14 20 19 23 23 22 25 20 13 17 22 20 19 19 23 22 26 26 6 14 18 13 14 15 16 22 22 22 19 12 13 12 6
19 20 21 22 22 20 7 6 8 10 8 13 18 21 20 20 21 20 18 14 23 12 14 15 17 18 23 23 11 16 14 11 15 17 20 19 17 23 20 20 19 17 11 7
20 20 21 22 24 32 6 7 8 13 14 20 15 13 22 20 18 18 21 18 20 17 18 9 11 16 12 21 17 12 10 8 11 18 18 18 21 22 23 24 23 23 20 16
19 19 20 21 20 21 7 8 9 8 10 16 12 12 11 17 22 15 9 5 8 13 17 14 7 10 11 6 10 15 14 13 13 15 17 20 21 20 21 17 17 15 13 4
18 19 19 19 18 13 9 11 6 6 11 13 12 11 10 14 7 11 18 5 8 12 17 17 10 11 6 4 3 11 10 14 12 14 17 21 16 19 17 14 15 15 16 17
17 18 19 18 18 15 10 11 5 4 10 16 11 8 10 13 7 13 9 12 9 12 13 11 7 8 9 11 10 4 14 5 11 14 15 14 20 6 8 17 17 9 7 9
15 16 17 18 18 16 10 11 4 5 5 9 19 14 13 11 11 12 14 9 5 11 9 10 11 12 5 11 14 22 23 30 20 4 11 18 14 10 6 17 12 18 20 3
14 16 16 17 17 16 11 10 5 6 6 2 17 12 11 14 12 10 1 4 7 13 9 11 14 15 14 17 15 13 13 8 11 11 12 17 12 7 13 8 11 14 2 8
13 14 15 15 16 16 10 10 5 5 7 11 9 15 12 14 10 9 13 7 8 9 11 12 12 13 12 16 15 9 16 4 9 13 14 17 12 10 10 9 8 7 11 12
14 13 14 14 14 15 12 10 9 7 8 11 12 12 9 9 9 8 10 10 7 7 7 3 7 12 11 4 10 13 9 10 9 4 3 21 12 16 16 7 8 8 6 5
13 12 12 14 13 13 10 9 9 10 9 11 13 7 5 4 4 6 6 6 9 6 8 7 6 4 6 4 7 12 7 7 1 5 7 6 11 15 13 10 5 3 4 4
10 11 10 12 13 12 12 7 9 7 7 7 7 5 3 5 6 5 7 8 10 10 8 8 7 6 6 7 6 3 13 6 6 11 11 12 13 10 7 7 8 9 9 9
10 10 9 10 12 12 10 8 8 4 6 7 8 9 8 3 2 3 4 5 7 6 6 5 6 5 7 5 5 7 7 4 1 10 10 9 11 7 12 10 10 9 11 11
8 10 7 9 11 11 7 4 5 5 7 6 5 6 8 6 4 2 5 5 5 5 4 4 5 5 6 7 4 7 10 16 14 10 10 10 9 9 10 8 10 10 9 8
8 10 7 8 10 8 3 3 4 8 7 5 5 3 6 3 4 5 5 4 4 4 3 3 4 2 2 4 9 13 14 11 8 9 9 9 11 9 10 10 11 12 12 10
7 8 7 9 12 13 7 5 12 7 6 5 5 3 5 6 6 6 2 4 4 4 4 1 2 5 3 3 3 7 11 12 9 7 8 7 11 12 13 13 12 12 11 12
6 5 6 6 5 2 1 2 4 5 5 6 5 8 5 5 5 4 4 3 4 5 4 4 3 4 4 4 4 2 4 5 7 9 10 11 10 9 10 12 12 13 12 12
5 5 4 4 1 6 6 4 4 6 6 5 5 8 3 4 4 5 1 2 4 4 7 4 5 6 8 6 5 2 9 10 11 9 8 10 11 10 12 13 12 13 13 13
5 3 3 1 3 4 1 2 5 5 3 5 6 6 4 2 6 4 3 3 3 3 3 2 3 6 12 14 16 12 11 9 10 11 12 13 13 13 13 14 15 16 15 14
1 2 5 4 3 2 4 2 4 5 6 5 4 4 3 3 3 4 2 2 2 4 3 1 3 10 15 12 11 10 10 12 13 13 15 16 16 15 15 16 16 17 15 14
2 2 3 1 2 1 5 5 4 4 1 4 2 5 2 3 3 2 2 3 5 2 2 3 7 8 10 11 11 13 14 15 16 16 16 19 21 18 17 15 15 17 14 12
3 4 2 4 4 5 5 3 1 5 8 5 0 5 5 4 3 4 4 3 1 4 5 5 7 11 10 10 11 13 15 16 17 18 18 18 20 18 16 16 15 16 13 12
2 3 2 6 6 4 3 1 3 4 6 6 1 2 3 5 3 3 4 4 4 5 5 8 9 11 12 12 11 11 12 12 13 14 16 15 15 18 14 16 9 9 5 10
2 3 5 5 4 4 3 5 2 8 5 3 4 1 3 1 2 1 3 5 1 5 7 8 8 12 13 12 9 10 9 8 10 11 12 10 12 12 12 5 5 10 9 9
4 3 5 2 2 2 3 5 3 4 4 2 0 3 2 3 3 3 3 6 7 6 7 5 6 10 9 8 6 6 7 8 8 8 10 10 9 10 13 11 8 5 5 2
Wind_Direction
330 331 333 334 334 334 323 297 257 149 164 207 226 228 236 262 250 239 246 256 278 293 288 223 220 202 202 201 217 220 236 245 251 194 194 206 226 196 214 246 254 283 305 315
336 338 335 335 335 354 319 283 276 239 221 237 232 230 241 257 253 255 262 226 250 267 270 276 230 225 201 204 212 217 219 236 246 237 198 196 222 217 213 223 241 259 255 179
336 339 337 335 330 337 313 278 266 214 211 244 255 243 234 239 246 246 272 271 269 247 259 271 268 211 230 211 204 196 215 214 230 246 232 195 200 216 233 252 234 237 231 197
337 337 338 335 329 328 288 246 272 9 275 221 229 256 265 263 234 228 257 266 276 262 259 257 261 253 214 220 186 190 216 226 238 233 260 268 239 209 218 238 264 270 248 229
336 339 339 338 337 330 222 306 344 339 301 289 283 242 248 267 255 229 223 229 264 249 258 304 348 348 288 214 158 173 192 211 235 253 254 244 252 265 207 213 225 243 253 244
331 337 338 339 348 343 323 6 319 299 292 286 277 254 256 254 278 228 235 192 294 284 347 347 328 311 314 346 177 190 192 204 223 240 242 256 256 247 251 238 226 236 259 287
326 332 337 338 345 354 320 297 332 286 280 269 285 334 316 290 335 351 337 183 272 11 331 311 256 268 268 135 15 348 231 219 207 234 243 243 250 265 252 246 241 241 215 204
320 326 331 334 336 343 320 297 321 312 297 322 320 327 315 307 319 285 289 310 12 327 304 289 257 243 227 190 150 103 343 254 213 228 231 244 252 313 36 36 325 292 255 208
311 318 325 330 331 339 323 304 329 295 312 14 343 320 303 300 272 260 266 276 326 307 279 274 259 246 189 225 198 186 197 168 255 264 250 255 263 180 88 359 312 11 14 331
297 310 319 326 328 336 322 284 336 287 278 306 343 0 333 326 330 293 262 254 306 239 256 246 251 238 244 228 239 227 230 212 240 220 248 265 289 112 102 170 247 311 325 74
290 299 310 321 328 335 331 303 294 311 306 294 324 337 336 331 338 328 360 272 211 275 235 241 245 255 238 240 235 209 274 272 257 247 250 247 338 92 149 76 92 35 28 32
284 285 301 315 324 330 337 287 344 330 278 291 314 292 296 290 303 322 326 310 5 7 294 319 278 259 275 250 270 309 211 168 167 313 13 329 58 93 100 85 71 48 33 354
283 278 293 307 317 323 329 297 299 308 266 255 231 229 179 299 290 309 290 44 354 357 337 311 302 313 329 346 22 305 61 7 178 140 155 140 313 64 49 51 50 18 33 341
284 284 286 300 308 315 317 293 310 300 302 271 131 123 187 351 277 270 266 304 315 294 285 296 295 302 29 311 102 49 253 100 337 272 56 233 80 71 48 45 31 20 10 357
271 290 278 296 304 314 300 269 271 302 304 327 320 297 129 129 328 261 209 279 311 302 286 263 281 307 343 329 297 227 6 116 9 72 50 62 60 29 59 29 10 13 8 353
270 288 273 293 303 319 293 220 164 8 350 279 276 119 168 166 188 225 283 251 240 266 316 295 303 72 345 314 306 307 55 65 41 72 46 32 351 354 41 14 347 2 336 340
256 280 267 286 297 292 282 324 333 339 305 256 273 237 139 203 197 197 211 187 273 272 250 232 301 50 334 299 289 307 354 48 52 26 12 353 351 346 354 336 332 334 318 317
248 253 267 286 291 277 258 251 226 259 262 276 269 233 176 189 219 178 182 199 198 197 286 292 267 148 183 267 1 357 5 12 12 1 7 2 358 344 337 334 324 313 308 307
222 239 275 266 232 240 125 194 193 230 287 303 254 292 92 172 259 50 168 295 214 145 212 229 247 219 205 186 218 317 347 16 355 356 353 342 315 318 322 321 328 327 324 315
182 235 224 232 210 135 153 189 209 199 203 227 265 298 73 259 176 184 224 195 268 209 195 210 218 255 272 247 252 108 60 28 17 343 326 337 323 318 321 322 319 309 304 305
206 230 236 189 119 219 286 245 208 204 231 206 232 291 325 68 339 348 355 342 347 240 161 229 229 101 45 50 61 50 37 15 353 345 336 326 320 316 311 307 308 307 304 294
0 303 267 245 208 207 234 232 240 234 224 149 207 184 246 78 331 302 129 265 215 276 62 256 229 50 34 36 28 26 8 352 336 325 314 308 303 302 300 296 291 289 295 291
321 14 301 298 176 223 193 185 219 215 137 126 149 150 207 150 264 271 340 218 232 27 262 232 69 44 24 7 350 339 331 322 315 309 302 304 300 291 291 293 287 281 275 275
187 176 210 231 197 214 234 234 228 81 62 93 144 105 34 36 193 250 199 315 359 277 249 98 52 20 353 343 332 322 322 322 307 303 310 306 295 289 286 287 276 272 259 257
296 269 259 211 240 184 173 60 148 47 62 65 110 158 250 181 152 247 13 185 258 224 39 31 25 354 340 328 326 332 336 335 322 319 315 307 303 298 283 285 308 58 329 84
280 258 250 254 209 275 170 95 39 120 120 213 220 335 8 222 68 39 257 247 96 44 360 353 4 356 345 340 326 332 338 336 326 339 333 332 320 308 294 332 33 41 35 66
277 254 219 309 284 64 359 104 132 182 187 277 306 186 176 285 133 227 275 20 34 347 325 327 345 327 336 332 348 351 7 357 10 14 25 13 343 18 357 12 28 38 63 85